Other Public Products
Issued by NWS Grand Forks, ND

Home | Current Version | Previous Version | Graphics & Text | Print | Product List | Glossary On
Versions: 1 2 3 4 5 6 7 8 9 10 11 12 13 14 15 16 17 18 19 20 21 22 23 24 25 26 27 28 29 30 31 32 33 34 35 36 37 38 39 40 41 42 43 44 45 46 47 48 49 50
000
FPUS83 KFGF 242131
OPUFGF
PRAIRIE TO PINES WEATHER ROUNDUP
NATIONAL WEATHER SERVICE EASTERN NORTH DAKOTA/GRAND FORKS ND
400 PM CDT MON APR 24 2017

 **SATELLITE DATA USED TO AUGMENT SKY COVER AT AUTOMATED STATIONS**
 *****  WEATHER ACROSS EASTERN NORTH DAKOTA  *****

CITY           SKY/WX    TMP DP  RH WIND       PRES   REMARKS
GRAND FORKS    LGT RAIN  37  36  96 N16       29.61S
GRAND FORKS AF CLOUDY    32  32 100 N15       29.63R WCI  22
GRAND CITY NWS NOT AVBL
BUXTON           N/A     39  39  99 N16         N/A
DEVILS LAKE    FLURRIES  33  30  88 NE14      29.67R WCI  23
FARGO          LGT RAIN  47  44  90 N16       29.53R
WAHPETON ARPT  CLOUDY    54  45  71 S6        29.51S
$$

 *****  WEATHER ACROSS CENTRAL AND WESTERN NORTH DAKOTA  *****

CITY           SKY/WX    TMP DP  RH WIND       PRES   REMARKS
JAMESTOWN      CLOUDY    36  36 100 N17       29.58R
BISMARCK       CLOUDY    40  34  79 N15G21    29.66R
MINOT          CLOUDY    34  29  82 N13       29.71R WCI  25
MINOT AFB      CLOUDY    33  28  80 NE14      29.71S WCI  23
GARRISON         N/A     34  28  79 NE10      29.68R
WILLISTON      CLOUDY    38  28  67 N8        29.73R
DICKINSON      CLOUDY    38  32  79 N6        29.64R
HETTINGER      CLOUDY    44  37  76 N10       29.64R
$$

 *****  OTHER OBSERVATIONS NORTHEAST NORTH DAKOTA  *****

CITY           SKY/WX    TMP DP  RH WIND       PRES   REMARKS
WALHALLA       NOT AVBL
LANGDON        LGT SNOW  32  32 100 NE18G26   29.68S WCI  20
CAVALIER       CLOUDY    34  32  93 NE16      29.69F WCI  23
GRAFTON        CLOUDY    34  34 100 N14       29.68S WCI  24
CANDO          NOT AVBL
FORT TOTTEN      N/A     33  33  99 NE7       29.95S
ROLLA          MIX PCPN  30  30 100 NE20G25   29.72R WCI  18
RUGBY          NOT AVBL
 ***** THE ABOVE OBSERVATIONS ARE NON NWS ARE NOT QUALITY
        CONTROLLED AND MAY MIS-REPORT RAIN FOR SNOW...
$$

 *****  OTHER OBSERVATIONS SOUTHEAST NORTH DAKOTA *****

CITY           SKY/WX    TMP DP  RH WIND       PRES   REMARKS
COOPERSTOWN    CLOUDY    34  34 100 N17       29.60S WCI  23
VALLEY CITY    DRIZZLE   36  36 100 N13G20    29.59R
OAKES          NOT AVBL
GWINNER        MOCLDY    43  39  87 MISG      29.54S
SHEYENNE NWR     N/A     45  41  86 N9        29.95S
BUFFALO          N/A     38  37  95 SE12        N/A
WYNDMERE         N/A     52  46  82 NW12        N/A
 ***** THE ABOVE OBSERVATIONS ARE NON NWS ARE NOT QUALITY
       CONTROLLED AND MAY MIS-REPORT RAIN FOR SNOW...
$$

  *****  WEATHER ACROSS NORTHERN MINNESOTA  *****

CITY           SKY/WX    TMP DP  RH WIND       PRES   REMARKS
FLAG ISLAND    SNOW      32  30  93 NE12G17   29.72S VSB 1/2 WCI  23
WARROAD        LGT SNOW  34  28  80 NE16      29.68F WCI  23
ROSEAU         LGT SNOW  34  28  80 NE14G20   29.67F WCI  24
HALLOCK        CLOUDY    36  34  93 NE13      29.67S
THF RVR FALLS  NOT AVBL
HALSTAD          N/A     47  43  84 NE8         N/A
FOSSTON        RAIN      43  39  87 E7        29.56R
BAUDETTE       LGT SNOW  34  31  88 NE8       29.65F FOG
WASKISH        LGT RAIN  39  37  93 E8        29.61S
CROOKSTON      CLOUDY    37  37 100 NE9G18    29.59R
$$
  *****  WEATHER ACROSS CENTRAL AND WEST MINNESOTA  *****

CITY           SKY/WX    TMP DP  RH WIND       PRES   REMARKS
BEMIDJI        RAIN      44  39  83 E7        29.56R
PARK RAPIDS    LGT RAIN  59  38  45 S13       29.52F
WADENA         LGT RAIN  61  41  48 S10       29.51F
DETROIT LAKES  RAIN      50  46  87 CALM      29.54S
MOORHEAD       PTSUNNY   52  45  76 N13       29.52S
FERGUS FALLS   LGT RAIN  55  45  67 S8        29.50F
ELBOW LAKE     LGT RAIN  60  42  51 SW9       29.51S
MORRIS MN      FAIR      63  39  42 S21       29.50S
STAPLES        PTSUNNY   64  32  29 S14G21    29.52F
WHEATON        PTSUNNY   63  37  39 S6        29.50F
$$
  *****  WEATHER ELSEWHERE ACROSS MINNESOTA  *****

CITY           SKY/WX    TMP DP  RH WIND       PRES   REMARKS
DULUTH         FAIR      39  31  72 E17G30    29.70F
INTRNTL FALLS  CLOUDY    38  32  79 E13G23    29.66F
ELY            FAIR      37  28  70 E10G22    29.73F
CLOQUET        FAIR      39  28  65 E21G29    29.65F
BRAINERD       CLOUDY    63  32  31 S13G24    29.56F
HIBBING        PTSUNNY   43  31  62 E18G28    29.65F
ALEXANDRIA     CLOUDY    63  36  36 S21G31    29.52F
SAINT CLOUD    CLOUDY    67  29  24 S16G30    29.56F
MINNEAPOLIS    CLOUDY    70  27  20 S18G29    29.61F
$$

  *****  WEATHER ACROSS SOUTH DAKOTA  *****

CITY           SKY/WX    TMP DP  RH WIND       PRES   REMARKS
SIOUX FALLS    PTSUNNY   65  46  50 S6        29.51F
BROOKINGS      FAIR      64  40  41 S21G31    29.50
WATERTOWN      FAIR      62  42  47 S14G23    29.48F
HURON          PTSUNNY   54  42  64 NW13      29.53R
SISSETON         N/A     51  48  89 N14       29.49S
ABERDEEN       PTSUNNY   51  36  56 N18       29.54S
MITCHELL       FAIR      62  43  49 W17       29.52F
PIERRE         PTSUNNY   51  38  60 NW15G22   29.58F
MOBRIDGE       CLOUDY    49  34  56 N16       29.59R
RAPID CITY     FAIR      61  40  45 N18G28    29.59R
$$

  *****  SOME WEATHER IN NEARBY STATES *****

CITY           SKY/WX    TMP DP  RH WIND       PRES   REMARKS
GLASGOW MT     CLOUDY    47  34  60 E7        29.67F
GREAT FALLS MT CLOUDY    55  27  34 S7        29.58S
CHEYENNE WY    LGT RAIN  50  37  61 SW9G21    29.65F
SCOTTSBLUFF NE FAIR      68  30  24 VRB5      29.58F
OMAHA NE       PTSUNNY   75  38  26 S30G40    29.54F
DES MOINES IA  CLOUDY    75  30  19 S24G37    29.62F
DAVENPORT IA   FAIR      76  25  15 S20       29.77F
CHICAGO IL     PTSUNNY   72  30  21 E13       29.84F
EAU CLAIRE WI  FAIR      68  28  22 S18G26    29.68F
LA CROSSE WI   FAIR      72  29  20 S20G30    29.69F
$$

  *****  SOME NATIONAL WEATHER *****

CITY           SKY/WX    TMP DP  RH WIND       PRES   REMARKS
LA GUARDIA NY  CLOUDY    57  43  59 NE8       30.14R
RALEIGH NC     RAIN      56  55  97 NE13      29.77F FOG
ATLANTA GA     PTSUNNY   63  57  81 NW8       29.73F
NEW ORLEANS LA FAIR      76  51  41 N12       29.82F
OKLAHOMA CITY  FAIR      75  49  39 S24G35    29.66F
ALBUQUERQUE NM CLOUDY    79  13   8 SW22G32   29.74F
SALT LAKE CITY CLOUDY    49  41  74 N7        29.73R
LOS ANGELES CA PTSUNNY   67  54  63 W16       29.93F
BOISE ID       LGT RAIN  50  41  71 NW15      29.72F
SEATTLE WA     PTSUNNY   52  42  69 NW8       29.73S
$$

*** WEATHER ACROSS MANITOBA...SASKATCHEWAN AND ONTARIO ***
                ***ONTARIO***

CITY           SKY/WX    TMP DP  RH WIND       PRES   REMARKS
GERALDTON      LGT SNOW  28  27  93 E15G22    30.09F VSB 1   WCI  17
THUNDER BAY    CLOUDY    36  30  80 E24G33    29.94F
SIOUX LOOKOUT  SNOW      27  25  93 E9G22     29.87S VSB 1/2 WCI  17
TORONTO        PTSUNNY   55  34  44 E13       30.10F
BIG TROUT LK   SUNNY     25  -2  30 E6        30.22F WCI  18
PICKLE LAKE    CLOUDY    32   9  37 E16G24    30.03F WCI  21
DRYDEN         LGT SNOW  28  27  93 NE17G24   29.78F VSB 3/4 WCI  16
KENORA         SNOW      28  27  93 NE14G30   29.76F VSB 1/2 WCI  17
$$
                *** MANITOBA***

CITY           SKY/WX    TMP DP  RH WIND       PRES   REMARKS
BRANDON        LGT SNOW  30  27  86 E24G30    29.80F WCI  16
DAUPHIN        LGT SNOW  30  25  80 NE18G26   29.92R WCI  18
ISLAND LAKE    PTSUNNY   30   5  34 E9        30.13F WCI  22
PILOT MOUND      N/A     32  28  86 NE17G26     N/A  WCI  21
THE PAS        CLOUDY    34   7  32 NE10G18   30.08S
THOMPSON       PTSUNNY   25  -4  28 E7G17     30.21S WCI  17
WINNIPEG       SNOWSHWR  32  30  93 NE25G31   29.79S VSB 1   WCI  19
LYNN LAKE      SUNNY     23   3  42 E12G17    30.17S WCI  12
CHURCHILL      PTSUNNY    3  -4  72 NW12      30.43R WCI -13
GILLAM         MOSUNNY   18  -4  38 NE7       30.32F WCI   8
$$
                ***SASKATCHEWAN***

CITY           SKY/WX    TMP DP  RH WIND       PRES   REMARKS
ESTEVAN        CLOUDY    30  25  80 E18       29.77R WCI  18
KINDERSLEY     CLOUDY    36  30  80 E14G21    29.76R
LLOYDMINSTER   LGT SNOW  34  32  93 SE17      29.80R WCI  23
PRINCE ALBERT  FLURRIES  34  27  75 E15G21    29.94S WCI  24
REGINA         CLOUDY    30  23  74 E15       29.83R WCI  19
YORKTON        CLOUDY    30  25  80 NE16      29.88F WC


USA.gov is the U.S. government's official web portal to all federal, state and local government web resources and services.